1308268829562,119.787
1308268889562,119.772
1308268949562,119.717
1308269009562,119.829
1308269069562,119.817
1308269129562,119.954
1308269189562,119.532
1308269249562,119.523
1308269309562,119.471
1308269369562,119.845
1308269429562,119.888
1308269489562,119.966
1308269549562,119.886
1308269609562,119.690
1308269669562,119.485
1308269729562,119.753
1308269789562,119.484
1308269849562,119.712
1308269909562,119.489
1308269969562,119.506
1308270029562,119.938
1308270089562,119.733
1308270149562,119.794
1308270209562,119.895
1308270269562,119.842
1308270329562,119.694
1308270389562,120.088
1308270449562,119.689
1308270509562,119.635
1308270569562,119.653
1308270629562,119.747
1308270689562,119.558
1308270749562,119.873
1308270809562,119.841
1308270869562,119.752
1308270929562,119.607
1308270989562,119.561
1308271049562,119.491
1308271109562,119.188
1308271169562,119.460
1308271229562,119.560
1308271289562,119.738
1308271349562,119.567
1308271409562,119.649
1308271469562,119.479
1308271529562,119.403
1308271589562,119.186
1308271649562,119.149
1308271709562,119.217
1308271769562,119.020
1308271829562,119.322
1308271889562,119.193
1308271949562,119.209
1308272009562,119.065
1308272069562,119.211
1308272129562,119.098
1308272189562,119.282
1308272249562,119.247
1308272309562,119.362
1308272369562,119.078
1308272429572,119.125
1308272489572,118.968
1308272549572,119.173
1308272609572,119.350
1308272669572,119.229
1308272729572,118.945
1308272789572,119.134
1308272849572,119.006
1308272909572,119.190
1308272969572,118.942
1308273029572,119.004
1308273089572,119.169
1308273149572,119.257
1308273209572,118.929
1308273269572,119.068
1308273329572,118.867
1308273389572,118.868
1308273449572,118.990
1308273509572,118.975
1308273569572,118.867
1308273629572,118.915
1308273689572,118.989
1308273749572,119.173
1308273809572,118.840
1308273869572,118.938
1308273929572,119.117
1308273989572,119.105
1308274049572,119.110
1308274109572,118.959
1308274169572,118.918
1308274229572,119.108
1308274289572,118.902
1308274349572,118.948
1308274409572,119.034
1308274469572,119.160
1308274529572,119.075
1308274589572,118.688
1308274649572,119.140
1308274709572,118.858
1308274769572,118.956
1308274829572,119.123
1308274889572,119.033
1308274949572,118.927
1308275009572,119.084
1308275069572,119.093
1308275129572,118.780
1308275189572,118.889
1308275249572,119.128
1308275309572,119.159
1308275369572,119.023
1308275429572,119.131
1308275489572,118.978
1308275549572,119.139
1308275609572,119.226
1308275669572,119.108
1308275729572,118.999
1308275789572,119.152
1308275849572,119.254
1308275909572,118.900
1308275969572,118.947
1308276029582,119.062
1308276089582,118.895
1308276149582,119.071
1308276209582,119.079
1308276269582,119.235
1308276329582,119.190
1308276389582,118.857
1308276449582,118.997
1308276509582,118.889
1308276569582,118.963
1308276629582,119.071
1308276689582,118.837
1308276749582,119.143
1308276809582,119.052
1308276869582,119.130
1308276929582,119.224
1308276989582,119.035
1308277049582,118.988
1308277109582,119.398
1308277169582,119.255
1308277229582,119.602
1308277289582,119.307
1308277349582,119.474
1308277409582,119.456
1308277469582,119.492
1308277529582,119.588
1308277589582,119.833
1308277649582,119.333
1308277709582,119.241
1308277769582,119.493
1308277829582,119.689
1308277889582,119.362
1308277949582,119.584
1308278009582,119.580
1308278069582,119.497
1308278129582,119.455
1308278189582,119.561
1308278249582,119.547
1308278309582,119.289
1308278369582,119.677
1308278429582,119.670
1308278489582,119.867
1308278549582,119.984
1308278609582,119.461
1308278669582,119.944
1308278729582,119.798
1308278789582,119.808
1308278849582,119.626
1308278909582,119.692
1308278969582,120.206
1308279029582,119.752
1308279089582,119.688
1308279149582,119.396
1308279209582,119.522
1308279269582,119.781
1308279329582,119.795
1308279389582,119.670
1308279449582,119.619
1308279509582,119.565
1308279569582,119.993
1308279629591,119.902
1308279689591,119.875
1308279749591,119.559
1308279809591,119.727
1308279869591,119.636
1308279929591,119.565
1308279989591,119.626
1308280049591,119.552
1308280109591,119.737
1308280169591,119.744
1308280229591,119.522
1308280289591,119.510
1308280349591,119.556
1308280409591,119.838
1308280469591,119.406
1308280529591,119.663
1308280589591,119.625
1308280649591,119.774
1308280709591,119.519
1308280769591,119.920
1308280829591,119.725
1308280889591,119.912
1308280949591,119.725
1308281009591,119.858
1308281069591,119.794
1308281129591,119.864
1308281189591,119.797
1308281249591,119.969
1308281309591,119.931
1308281369591,119.960
1308281429591,119.878
1308281489591,119.833
1308281549591,119.793
1308281609591,119.995
1308281669591,120.040
1308281729591,119.781
1308281789591,119.899
1308281849591,119.707
1308281909591,119.468
1308281969591,119.695
1308282029591,119.868
1308282089591,120.146
1308282149591,120.314
1308282209591,120.017
1308282269591,120.037
1308282329591,120.108
1308282389591,119.591
1308282449591,119.786
1308282509591,119.803
1308282569591,119.815
1308282629591,119.857
1308282689591,119.797
1308282749591,119.843
1308282809591,119.855
1308282869591,120.067
1308282929591,119.854
1308282989591,120.080
1308283049591,119.761
1308283109591,119.569
1308283169591,119.690
1308283229601,119.634
1308283289601,119.772
1308283349601,119.603
1308283409601,119.805
1308283469601,119.694
1308283529601,119.487
1308283589601,119.862
1308283649601,119.623
1308283709601,119.782
1308283769601,120.018
1308283829601,119.748
1308283889601,119.767
1308283949601,119.797
1308284009601,119.534
1308284069601,119.718
1308284129601,119.912
1308284189601,119.618
1308284249601,119.828
1308284309601,119.693
1308284369601,119.513
1308284429601,119.953
1308284489601,119.752
1308284549601,119.814
1308284609601,119.829
1308284669601,119.570
1308284729601,119.850
1308284789601,119.866
1308284849601,119.760
1308284909601,119.637
1308284969601,119.764
1308285029601,119.782
1308285089601,119.637
1308285149601,119.735
1308285209601,119.940
1308285269601,119.790
1308285329601,120.192
1308285389601,120.041
1308285449601,119.809
1308285509601,119.930
1308285569601,119.968
1308285629601,119.849
1308285689601,119.895
1308285749601,120.174
1308285809601,120.123
1308285869601,120.020
1308285929601,119.904
1308285989601,119.866
1308286049601,120.151
1308286109601,120.119
1308286169601,119.943
1308286229601,120.069
1308286289601,119.913
1308286349601,120.008
1308286409601,120.172
1308286469601,120.145
1308286529601,119.945
1308286589601,119.853
1308286649601,120.043
1308286709601,120.142
1308286769601,120.025
1308286829610,119.864
1308286889610,119.931
1308286949610,120.116
1308287009610,120.125
1308287069610,119.999
1308287129610,120.062
1308287189610,120.023
1308287249610,119.814
1308287309610,120.237
1308287369610,120.243
1308287429610,120.177
1308287489610,120.244
1308287549610,120.049
1308287609610,120.291
1308287669610,120.103
1308287729610,119.946
1308287789610,120.163
1308287849610,120.131
1308287909610,120.231
1308287969610,120.117
1308288029610,119.938
1308288089610,120.185
1308288149610,120.088
1308288209610,120.356
1308288269610,120.296
1308288329610,119.947
1308288389610,120.063
1308288449610,120.124
1308288509610,120.073
1308288569610,120.219
1308288629610,120.094
1308288689610,120.132
1308288749610,120.056
1308288809610,119.820
1308288869610,120.157
1308288929610,120.313
1308288989610,120.041
1308289049610,120.412
1308289109610,120.231
1308289169610,120.177
1308289229610,120.172
1308289289610,120.445
1308289349610,120.459
1308289409610,120.450
1308289469610,120.223
1308289529610,120.120
1308289589610,120.516
1308289649610,120.283
1308289709610,120.420
1308289769610,120.490
1308289829610,120.541
1308289889610,120.194
1308289949610,120.273
1308290009610,120.392
1308290069610,120.295
1308290129610,120.557
1308290189610,120.374
1308290249610,120.245
1308290309610,120.129
1308290369610,120.487
1308290429620,120.410
1308290489620,120.543
1308290549620,120.386
1308290609620,120.282
1308290669620,120.351
1308290729620,120.456
1308290789620,120.398
1308290849620,120.390
1308290909620,120.415
1308290969620,120.645
1308291029620,120.572
1308291089619,120.563
1308291149619,120.483
1308291209619,120.316
1308291269619,120.166
1308291329620,120.381
1308291389620,120.320
1308291449620,120.627
1308291509620,120.564
1308291569620,120.576
1308291629620,120.622
1308291689620,120.692
1308291749620,120.997
1308291809620,120.514
1308291869620,120.839
1308291929620,120.540
1308291989620,120.770
1308292049620,120.776
1308292109620,120.709
1308292169620,120.806
1308292229620,120.574
1308292289620,120.770
1308292349620,120.646
1308292409619,121.043
1308292469619,120.399
1308292529619,120.451
1308292589619,120.882
1308292649620,120.889
1308292709620,120.734
1308292769620,121.129
1308292829620,120.676
1308292889620,120.955
1308292949620,121.054
1308293009620,120.739
1308293069620,120.914
1308293129620,120.913
1308293189620,121.209
1308293249620,121.200
1308293309620,121.138
1308293369620,120.797
1308293429620,121.186
1308293489620,121.062
1308293549620,120.806
1308293609620,121.178
1308293669620,121.077
1308293729620,121.118
1308293789619,121.265
1308293849619,121.237
1308293909619,121.479
1308293969619,121.217
1308294029629,121.284
1308294089629,120.937
1308294149629,121.054
1308294209629,121.017
1308294269629,121.137
1308294329629,121.163
1308294389629,121.243
1308294449629,121.228
1308294509629,121.101
1308294569629,120.983
1308294629629,121.172
1308294689629,121.201
1308295229629,121.546
1308295289629,121.180
1308295349629,121.265
1308295409629,121.267
1308295469629,121.491
1308295529629,121.242
1308295589629,121.026
1308295649629,121.462
1308295709629,121.470
1308295769629,121.796
1308295829629,121.336
1308295889629,121.347
1308295949629,121.378
1308296009629,121.494
1308296069629,121.360
1308296129629,121.508
1308296189629,121.148
1308296249629,121.068
1308296309629,121.093
1308296369629,121.179
1308296429629,121.222
1308296489629,121.184
1308296549629,121.326
1308296609629,121.149
1308296669629,121.345
1308296729629,121.229
1308296789629,121.351
1308296849629,121.405
1308296909629,121.202
1308296969629,121.125
1308297029629,121.229
1308297089629,121.275
1308297149629,121.329
1308297209629,121.188
1308297269629,121.351
1308297329629,121.275
1308297389629,121.297
1308297449629,121.530
1308297509629,121.418
1308297569629,121.593
1308297629638,121.535
1308297689638,121.558
1308297749638,121.248
1308297809638,121.251
1308297869638,121.346
1308297929638,121.387
1308297989638,121.386
1308298049638,121.504
1308298109638,121.191
1308298169638,121.404
1308298229638,121.522
1308298289638,121.540
1308298349638,121.569
1308298409638,121.238
1308298469638,121.599
1308298529638,121.581
1308298589638,121.611
1308298649638,121.561
1308298709638,121.370
1308298769638,121.411
1308298829638,121.604
1308298889638,121.737
1308298949638,121.763
1308299009638,121.934
1308299069638,121.611
1308299129638,121.663
1308299189638,121.627
1308299249638,121.846
1308299309638,121.474
1308299369638,121.577
1308299429638,121.635
1308299489638,121.747
1308299549638,121.911
1308299609638,121.722
1308299669638,121.684
1308299729638,121.863
1308299789638,121.840
1308299849638,121.908
1308299909638,121.664
1308299969638,121.884
1308300029638,121.808
1308300089638,121.820
1308300149638,121.809
1308300209638,121.558
1308300269638,121.791
1308300329638,121.892
1308300389638,121.905
1308300449638,121.770
1308300509638,121.791
1308300569638,121.652
1308300629638,121.959
1308300689638,121.930
1308300749638,122.082
1308300809638,122.158
1308300869638,122.030
1308300929638,122.078
1308300989638,121.790
1308301049638,121.950
1308301109638,121.945
1308301169638,122.014
1308301229647,122.181
1308301289647,121.931
1308301349647,122.008
1308301409647,122.066
1308301469647,122.283
1308301529647,122.046
1308301589647,121.900
1308301649647,122.209
1308301709647,122.174
1308301769647,122.344
1308301829647,122.243
1308301889647,121.961
1308301949647,122.306
1308302009647,122.120
1308302069647,122.081
1308302129647,122.280
1308302189647,122.303
1308302249647,122.343
1308302309647,122.351
1308302369647,122.312
1308302429647,122.391
1308302489647,121.992
1308302549647,122.425
1308302609647,122.322
1308302669647,122.389
1308302729647,122.407
1308302789647,122.187
1308302849647,122.187
1308302909647,122.484
1308302969647,122.574
1308303029647,122.234
1308303089647,122.088
1308303149647,122.265
1308303209647,122.303
1308303269647,122.330
1308303329647,122.530
1308303389647,122.230
1308303449647,122.451
1308303509647,122.550
1308303569647,122.012
1308303629647,122.302
1308303689647,122.293
1308303749647,122.447
1308303809647,122.345
1308303869647,122.196
1308303929647,122.545
1308303989647,122.403
1308304049647,122.251
1308304109647,122.229
1308304169647,122.445
1308304229647,122.304
1308304289647,122.142
1308304349647,122.516
1308304409647,122.486
1308304469647,122.046
1308304529647,122.397
1308304589647,122.220
1308304649647,122.249
1308304709647,122.785
1308304769647,122.292
1308304829656,122.291
1308304889656,122.130
1308304949656,122.332
1308305009656,122.100
1308305069656,122.453
1308305129656,122.070
1308305189656,122.046
1308305249656,122.421
1308305309656,122.426
1308305369656,122.111
1308305429656,121.961
1308305489656,121.989
1308305549656,122.482
1308305609656,122.237
1308305669656,122.016
1308305729656,122.158
1308305789656,122.335
1308305849656,122.121
1308305909656,122.229
1308305969656,122.091
1308306029656,122.265
1308306089656,122.285
1308306149656,121.923
1308306209656,121.903
1308306269656,122.167
1308306329656,122.161
1308306389656,121.973
1308306449656,121.995
1308306509656,121.990
1308306569656,122.004
1308306629656,121.826
1308306689656,122.196
1308306749656,121.947
1308306809656,122.238
1308306869656,122.132
1308306929656,122.112
1308306989656,121.925
1308307049656,121.919
1308307109656,122.226
1308307169656,122.254
1308307229656,121.992
1308307289656,121.850
1308307349656,122.182
1308307409656,122.071
1308307469656,122.093
1308307529656,122.017
1308307589656,121.989
1308307649656,122.326
1308307709656,122.085
1308307769656,122.366
1308307829656,122.140
1308307889656,122.029
1308307949656,122.048
1308308009656,122.211
1308308069656,122.117
1308308129656,122.268
1308308189656,122.067
1308308249656,122.161
1308308309656,122.020
1308308369656,122.329
1308308429665,121.938
1308308489665,122.212
1308308549665,122.228
1308308609665,122.012
1308308669665,121.841
1308308729665,121.968
1308308789665,122.169
1308308849665,122.219
1308308909665,122.202
1308308969665,122.161
1308309029665,121.703
1308309089665,122.005
1308309149665,122.062
1308309209665,122.436
1308309269665,122.239
1308309329665,122.084
1308309389665,122.052
1308309449665,122.162
1308309509665,121.990
1308309569665,122.016
1308309629665,122.147
1308309689665,122.164
1308309749665,122.149
1308309809665,121.989
1308309869665,122.081
1308309929665,122.279
1308309989665,122.071
1308310049665,122.169
1308310109665,122.014
1308310169665,122.412
1308310229665,121.877
1308310289665,122.036
1308310349665,122.022
1308310409665,122.238
1308310469665,122.099
1308310529665,122.455
1308310589665,122.330
1308310649665,122.171
1308310709665,122.104
1308310769665,122.151
1308310829665,122.389
1308310889665,122.331
1308310949665,122.182
1308311009665,122.335
1308311069665,122.052
1308311129665,122.158
1308311189665,121.898
1308311249665,122.307
1308311309665,122.192
1308311369665,121.925
1308311429665,122.363
1308311489665,122.017
1308311549665,121.919
1308311609665,122.292
1308311669665,122.183
1308311729665,121.949
1308311789665,122.010
1308311849665,122.118
1308311909665,122.108
1308311969665,121.866
1308312029674,121.965
1308312089674,122.010
1308312149674,122.335
1308312209674,122.186
1308312269674,122.238
1308312329674,122.310
1308312389674,122.107
1308312449674,122.253
1308312509674,122.341
1308312569674,122.388
1308312629674,122.340
1308312689674,122.003
1308312749674,122.094
1308312809674,122.272
1308312869674,122.206
1308312929674,122.099
1308312989674,122.692
1308313049674,122.354
1308313109674,122.379
1308313169674,122.301
1308313229674,122.414
1308313289674,122.466
1308313349674,122.376
1308313409674,122.253
1308313469674,122.343
1308313529674,122.183
1308313589674,122.464
1308313649674,122.340
1308313709674,122.187
1308313769674,122.347
1308313829674,122.495
1308313889674,122.538
1308313949674,122.635
1308314009674,122.616
1308314069674,122.491
1308314129674,122.712
1308314189674,122.401
1308314249674,122.200
1308314309674,122.216
1308314369674,122.302
1308314429674,122.517
1308314489674,122.642
1308314549674,122.360
1308314609674,122.057
1308314669674,122.467
1308314729674,122.403
1308314789674,122.249
1308314849674,122.497
1308314909674,122.153
1308314969674,122.268
1308315029674,121.986
1308315089674,122.315
1308315149674,122.175
1308315209674,122.048
1308315269674,122.248
1308315329674,122.189
1308315389674,122.173
1308315449674,122.170
1308315509674,122.207
1308315569674,122.286
1308315629684,122.283
1308315689684,122.102
1308315749684,122.458
1308315809684,122.127
1308315869684,122.261
1308315929684,122.195
1308315989684,122.189
1308316049684,122.252
1308316109684,121.996
1308316169684,122.164
1308316229683,122.025
1308316289683,122.160
1308316349683,122.103
1308316409683,121.989
1308316469683,122.083
1308316529683,122.009
1308316589683,122.111
1308316649684,122.136
1308316709684,121.905
1308316769684,121.679
1308316829684,121.908
1308316889683,122.211
1308316949684,122.228
1308317009684,121.842
1308317069684,122.070
1308317129684,122.197
1308317189684,122.289
1308317249684,122.284
1308317309684,122.105
1308317369684,121.853
1308317429684,122.256
1308317489684,122.142
1308317549684,122.069
1308317609683,122.193
1308317669683,122.318
1308317729683,122.162
1308317789683,122.121
1308317849683,122.324
1308317909683,122.145
1308317969684,122.436
1308318029684,122.252
1308318089684,122.063
1308318149684,122.087
1308318209684,122.125
1308318269683,121.982
1308318329684,121.843
1308318389684,121.981
1308318449684,121.955
1308318509684,122.144
1308318569684,122.233
1308318629684,121.993
1308318689684,122.218
1308318749684,122.161
1308318809684,122.488
1308318869684,122.636
1308318929683,122.145
1308318989683,122.257
1308319049683,122.109
1308319109683,122.481
1308319169683,122.177
1308319229693,122.367
1308319289693,122.431
1308319349693,122.202
1308319409693,122.412
1308319469693,122.542
1308319529693,122.557
1308319589693,122.426
1308319649693,122.410
1308319709693,122.116
1308319769693,122.394
1308319829693,122.467
1308319889693,122.637
1308319949693,122.466
1308320009693,122.450
1308320069693,122.591
1308320129693,122.474
1308320189693,122.435
1308320249693,122.373
1308320309693,122.753
1308320369693,122.595
1308320429693,122.540
1308320489693,122.526
1308320549693,122.446
1308320609693,122.595
1308320669693,122.089
1308320729693,122.329
1308320789693,122.496
1308320849693,122.396
1308320909693,122.401
1308320969693,122.377
1308321029693,122.648
1308321089693,122.501
1308321149693,122.357
1308321209693,122.352
1308321269693,122.525
1308321329693,122.577
1308321389693,122.527
1308321449693,122.432
1308321509693,122.530
1308321569693,122.382
1308321629693,122.470
1308321689693,122.341
1308321749693,122.287
1308321809693,122.308
1308321869693,122.427
1308321929693,122.363
1308321989693,122.297
1308322049693,122.418
1308322109693,122.291
1308322169693,122.658
1308322229693,122.396
1308322289693,122.614
1308322349693,122.764
1308322409693,122.456
1308322469693,122.310
1308322529693,122.376
1308322589693,122.614
1308322649693,122.500
1308322709693,122.393
1308322769693,122.720
1308322829702,122.576
1308322889702,122.401
1308322949702,122.943
1308323009702,122.566
1308323069702,122.581
1308323129702,122.569
1308323189702,122.703
1308323249702,122.501
1308323309702,122.629
1308323369702,122.244
1308323429702,122.409
1308323489702,122.519
1308323549702,122.358
1308323609702,122.226
1308323669702,122.192
1308323729702,122.357
1308323789702,122.395
1308323849702,122.531
1308323909702,122.499
1308323969702,122.620
1308324029702,122.252
1308324089702,122.163
1308324149702,122.378
1308324209702,122.394
1308324269702,122.421
1308324329702,122.267
1308324389702,122.339
1308324449702,122.569
1308324509702,122.544
1308324569702,122.239
1308324629702,122.505
1308324689702,122.470
1308324749702,122.460
1308324809702,122.297
1308324869702,122.265
1308324929702,122.507
1308324989702,122.463
1308325049702,122.557
1308325109702,122.131
1308325169702,122.622
1308325229702,122.306
1308325289702,122.014
1308325349702,122.191
1308325409702,121.968
1308325469702,122.429
1308325529702,122.072
1308325589702,122.381
1308325649702,122.174
1308325709702,121.874
1308325769702,122.229
1308325829702,122.066
1308325889702,122.311
1308325949702,122.106
1308326009702,122.078
1308326069702,121.880
1308326129702,121.818
1308326189702,121.979
1308326249702,122.065
1308326309702,121.780
1308326369702,121.919
1308326429711,121.938
1308326489711,122.094
1308326549711,121.658
1308326609711,121.648
1308326669711,121.827
1308326729711,121.643
1308326789711,121.624
1308326849711,121.626
1308326909711,121.761
1308326969711,121.933
1308327029711,121.782
1308327089711,121.762
1308327149711,121.771
1308327209711,121.671
1308327269711,121.611
1308327329711,121.455
1308327389711,121.885
1308327449711,121.532
1308327509711,121.649
1308327569711,121.322
1308327629711,121.558
1308327689711,121.443
1308327749711,121.535
1308327809711,121.408
1308327869711,121.566
1308327929711,121.312
1308327989711,121.480
1308328049711,121.562
1308328109711,121.437
1308328169711,121.642
1308328229711,121.453
1308328289711,121.558
1308328349711,121.211
1308328409711,121.396
1308328469711,121.625
1308328529711,121.276
1308328589711,121.388
1308328649711,121.224
1308328709711,121.349
1308328769711,121.176
1308328829711,121.039
1308328889711,121.029
1308328949711,121.009
1308329009711,121.188
1308329069711,121.453
1308329129711,121.174
1308329189711,121.130
1308329249711,121.051
1308329309711,120.986
1308329369711,121.049
1308329429711,121.178
1308329489711,121.047
1308329549711,120.925
1308329609711,120.892
1308329669711,120.891
1308329729711,121.117
1308329789711,121.029
1308329849711,120.867
1308329909711,120.891
1308329969711,120.807
1308330029721,120.836
1308330089721,120.989
1308330149721,120.794
1308330209721,120.896
1308330269721,120.977
1308330329721,120.941
1308330389721,120.882
1308330449721,120.888
1308330509721,121.200
1308330569721,121.136
1308330629721,121.071
1308330689721,121.213
1308330749721,121.025
1308330809721,121.030
1308330869721,120.952
1308330929721,120.745
1308330989721,120.919
1308331049721,121.206
1308331109721,120.853
1308331169721,121.106
1308331229721,120.936
1308331289721,120.613
1308331349721,120.892
1308331409721,120.793
1308331469721,120.737
1308331529721,120.665
1308331589721,120.752
1308331649721,120.681
1308331709721,120.563
1308331769721,120.674
1308331829721,120.527
1308331889721,120.279
1308331949721,120.649
1308332009721,120.639
1308332069721,120.505
1308332129721,120.364
1308332189721,120.705
1308332249721,120.421
1308332309721,120.479
1308332369721,120.555
1308332429721,120.420
1308332489721,120.357
1308332549721,120.228
1308332609721,120.355
1308332669721,120.358
1308332729721,120.297
1308332789721,120.133
1308332849721,120.495
1308332909721,120.260
1308332969721,120.305
1308333029721,120.466
1308333089721,120.558
1308333149721,120.290
1308333209721,120.343
1308333269721,120.376
1308333329721,120.297
1308333389721,120.419
1308333449721,120.101
1308333509721,120.495
1308333569721,120.308
1308333629731,120.271
1308333689731,120.198
1308333749731,120.070
1308333809731,120.178
1308333869731,120.230
1308333929731,120.346
1308333989731,119.968
1308334049731,120.548
1308334109731,120.228
1308334169731,120.299
1308334229731,120.146
1308334289731,120.215
1308334349731,120.370
1308334409731,120.076
1308334469731,120.285
1308334529731,120.319
1308334589731,120.025
1308334649731,119.975